Orbital Elements at Epoch 2459200.5 (2020-Dec-17.0) TDB
Reference: JPL 25 (heliocentric ecliptic J2000)
Element | Value | Uncertainty (1-sigma) | Units |
e | .1976826427282024 | 5.0624e-08 | |
a | 2.649891711453063 | 1.8618e-08 | au |
q | 2.126054114989463 | 1.3001e-07 | au |
i | 2.297049730631002 | 5.0174e-06 | deg |
node | 28.99516064490732 | 0.00013461 | deg |
peri | 274.5610136318438 | 0.00013526 | deg |
M | 262.687222544812 | 1.9041e-05 | deg |
tp | 2459626.400337640700 (2022-Feb-15.90033764) | 8.6516e-05 | TDB |
period | 1575.580571844812 4.31 | 1.6605e-05 4.546e-08 | d yr |
n | .2284872042935157 | 2.408e-09 | deg/d |
Q | 3.173729307916664 | 2.2298e-08 | au |
|
| | Orbit Determination Parameters
Additional Information
|